Time,TemperatureF,DewpointF,PressureIn,WindDirection,WindDirectionDegrees,WindSpeedMPH,WindSpeedGustMPH,Humidity,HourlyPrecipIn,Conditions,Clouds,dailyrainin,SoftwareType,DateUTC
2013-01-03 00:02:00,33.0,23.0,30.19,NW,305,1.0,1.0,65,0.00,,,0.00,,2013-01-03 08:02:00,
2013-01-03 00:11:00,33.0,23.0,30.19,NW,305,1.0,1.0,65,0.00,,,0.00,,2013-01-03 08:11:00,
2013-01-03 00:22:00,32.0,21.0,30.18,NW,304,1.0,2.0,63,0.00,,,0.00,,2013-01-03 08:22:00,
2013-01-03 00:32:00,32.0,21.0,30.18,WNW,303,1.0,2.0,63,0.00,,,0.00,,2013-01-03 08:32:00,
2013-01-03 00:42:00,32.0,21.0,30.18,WNW,303,1.0,2.0,63,0.00,,,0.00,,2013-01-03 08:42:00,
2013-01-03 00:53:00,32.0,20.0,30.17,WNW,303,2.0,2.0,62,0.00,,,0.00,,2013-01-03 08:53:00,
2013-01-03 01:02:00,32.0,20.0,30.18,WNW,303,2.0,2.0,61,0.00,,,0.00,,2013-01-03 09:02:00,
2013-01-03 01:11:00,32.0,20.0,30.18,WNW,303,2.0,2.0,61,0.00,,,0.00,,2013-01-03 09:11:00,
2013-01-03 01:22:00,32.0,20.0,30.16,WNW,300,1.0,1.0,60,0.00,,,0.00,,2013-01-03 09:22:00,
2013-01-03 01:33:00,32.0,20.0,30.17,WNW,301,0.0,0.0,60,0.00,,,0.00,,2013-01-03 09:33:00,
2013-01-03 01:42:00,32.0,20.0,30.17,WNW,301,0.0,0.0,60,0.00,,,0.00,,2013-01-03 09:42:00,
2013-01-03 01:52:00,32.0,20.0,30.17,WNW,300,0.0,0.0,62,0.00,,,0.00,,2013-01-03 09:52:00,
2013-01-03 02:01:00,32.0,20.0,30.18,WNW,301,0.0,0.0,60,0.00,,,0.00,,2013-01-03 10:01:00,
2013-01-03 02:11:00,32.0,20.0,30.18,WNW,301,0.0,0.0,60,0.00,,,0.00,,2013-01-03 10:11:00,
2013-01-03 02:22:00,32.0,20.0,30.18,NW,304,0.0,1.0,61,0.00,,,0.00,,2013-01-03 10:22:00,
2013-01-03 02:32:00,32.0,21.0,30.19,WNW,300,2.0,4.0,63,0.00,,,0.00,,2013-01-03 10:32:00,
2013-01-03 02:42:00,32.0,21.0,30.19,WNW,300,2.0,4.0,63,0.00,,,0.00,,2013-01-03 10:42:00,
2013-01-03 02:52:00,32.0,21.0,30.19,WNW,303,1.0,2.0,64,0.00,,,0.00,,2013-01-03 10:52:00,
2013-01-03 03:02:00,32.0,20.0,30.18,NW,304,1.0,2.0,62,0.00,,,0.00,,2013-01-03 11:02:00,
2013-01-03 03:11:00,32.0,20.0,30.18,NW,304,1.0,2.0,62,0.00,,,0.00,,2013-01-03 11:11:00,
2013-01-03 03:22:00,32.0,20.0,30.17,WNW,301,1.0,2.0,62,0.00,,,0.00,,2013-01-03 11:22:00,
2013-01-03 03:32:00,32.0,20.0,30.17,WNW,301,0.0,0.0,62,0.00,,,0.00,,2013-01-03 11:32:00,
2013-01-03 03:42:00,32.0,20.0,30.17,WNW,301,0.0,0.0,62,0.00,,,0.00,,2013-01-03 11:42:00,
2013-01-03 03:53:00,32.0,20.0,30.17,NW,305,2.0,2.0,62,0.00,,,0.00,,2013-01-03 11:53:00,
2013-01-03 04:02:00,32.0,20.0,30.17,WNW,300,1.0,2.0,62,0.00,,,0.00,,2013-01-03 12:02:00,
2013-01-03 04:12:00,32.0,20.0,30.17,WNW,300,1.0,2.0,62,0.00,,,0.00,,2013-01-03 12:12:00,
2013-01-03 04:22:00,32.0,21.0,30.16,NW,304,1.0,2.0,64,0.00,,,0.00,,2013-01-03 12:22:00,
2013-01-03 04:32:00,33.0,23.0,30.16,WNW,301,1.0,1.0,65,0.00,,,0.00,,2013-01-03 12:32:00,
2013-01-03 04:42:00,33.0,23.0,30.16,WNW,301,1.0,1.0,65,0.00,,,0.00,,2013-01-03 12:42:00,
2013-01-03 04:52:00,33.0,21.0,30.15,WNW,300,0.0,0.0,62,0.00,,,0.00,,2013-01-03 12:52:00,
2013-01-03 05:02:00,33.0,22.0,30.14,NW,304,0.0,1.0,63,0.00,,,0.00,,2013-01-03 13:02:00,
2013-01-03 05:12:00,33.0,22.0,30.14,NW,304,0.0,1.0,63,0.00,,,0.00,,2013-01-03 13:12:00,
2013-01-03 05:22:00,33.0,22.0,30.14,NW,305,2.0,2.0,63,0.00,,,0.00,,2013-01-03 13:22:00,
2013-01-03 05:32:00,33.0,22.0,30.14,WNW,300,0.0,1.0,64,0.00,,,0.00,,2013-01-03 13:32:00,
2013-01-03 05:42:00,33.0,22.0,30.14,WNW,300,0.0,1.0,64,0.00,,,0.00,,2013-01-03 13:42:00,
2013-01-03 05:52:00,32.0,22.0,30.13,WNW,301,0.0,0.0,65,0.00,,,0.00,,2013-01-03 13:52:00,
2013-01-03 06:02:00,31.0,21.0,30.13,NW,304,1.0,2.0,66,0.00,,,0.00,,2013-01-03 14:02:00,
2013-01-03 06:12:00,31.0,21.0,30.13,NW,304,1.0,2.0,66,0.00,,,0.00,,2013-01-03 14:12:00,
2013-01-03 06:22:00,31.0,21.0,30.13,NW,304,0.0,0.0,65,0.00,,,0.00,,2013-01-03 14:22:00,
2013-01-03 06:32:00,31.0,21.0,30.13,NW,304,0.0,0.0,65,0.00,,,0.00,,2013-01-03 14:32:00,
2013-01-03 06:42:00,31.0,21.0,30.13,NW,304,0.0,0.0,65,0.00,,,0.00,,2013-01-03 14:42:00,
2013-01-03 06:53:00,31.0,21.0,30.13,NW,304,0.0,0.0,65,0.00,,,0.00,,2013-01-03 14:53:00,
2013-01-03 07:02:00,31.0,21.0,30.13,NW,304,0.0,0.0,65,0.00,,,0.00,,2013-01-03 15:02:00,
2013-01-03 18:33:00,36.0,25.0,30.12,WNW,303,2.0,3.0,65,0.00,,,0.00,,2013-01-04 02:33:00,
2013-01-03 18:42:00,36.0,25.0,30.12,WNW,303,2.0,3.0,65,0.00,,,0.00,,2013-01-04 02:42:00,
2013-01-03 18:53:00,35.0,24.0,30.13,NW,304,3.0,4.0,64,0.00,,,0.00,,2013-01-04 02:53:00,
2013-01-03 19:02:00,34.0,30.0,30.14,WNW,303,4.0,5.0,85,0.00,,,0.00,,2013-01-04 03:02:00,
2013-01-03 19:11:00,34.0,30.0,30.14,WNW,303,4.0,5.0,85,0.00,,,0.00,,2013-01-04 03:11:00,
2013-01-03 19:22:00,34.0,31.0,30.13,NW,304,4.0,5.0,90,0.00,,,0.00,,2013-01-04 03:22:00,
2013-01-03 19:32:00,36.0,33.0,30.14,WNW,303,3.0,4.0,90,0.00,,,0.00,,2013-01-04 03:32:00,
2013-01-03 19:42:00,36.0,33.0,30.14,WNW,303,3.0,4.0,90,0.00,,,0.00,,2013-01-04 03:42:00,
2013-01-03 19:52:00,36.0,34.0,30.14,WNW,302,1.0,2.0,93,0.00,,,0.01,,2013-01-04 03:52:00,
2013-01-03 20:02:00,37.0,36.0,30.13,WNW,303,2.0,4.0,97,0.00,,,0.01,,2013-01-04 04:02:00,
2013-01-03 20:11:00,37.0,36.0,30.13,WNW,303,2.0,4.0,97,0.00,,,0.01,,2013-01-04 04:11:00,
2013-01-03 20:22:00,38.0,38.0,30.12,WNW,303,2.0,3.0,100,0.00,,,0.01,,2013-01-04 04:22:00,
2013-01-03 20:32:00,38.0,38.0,30.12,WNW,303,2.0,2.0,100,0.00,,,0.01,,2013-01-04 04:32:00,
2013-01-03 20:42:00,38.0,38.0,30.12,WNW,303,2.0,2.0,100,0.00,,,0.01,,2013-01-04 04:42:00,
2013-01-03 20:52:00,38.0,38.0,30.12,NW,304,3.0,4.0,100,0.00,,,0.01,,2013-01-04 04:52:00,
2013-01-03 21:03:00,37.0,37.0,30.13,WNW,303,3.0,4.0,100,0.00,,,0.01,,2013-01-04 05:03:00,
2013-01-03 21:12:00,37.0,37.0,30.13,WNW,303,3.0,4.0,100,0.00,,,0.01,,2013-01-04 05:12:00,
2013-01-03 21:22:00,36.0,36.0,30.12,NW,304,3.0,4.0,100,0.00,,,0.01,,2013-01-04 05:22:00,
2013-01-03 21:32:00,37.0,37.0,30.12,WNW,303,3.0,4.0,100,0.00,,,0.01,,2013-01-04 05:32:00,
2013-01-03 21:42:00,37.0,37.0,30.12,WNW,303,3.0,4.0,100,0.00,,,0.01,,2013-01-04 05:42:00,
2013-01-03 21:52:00,37.0,37.0,30.13,WNW,303,4.0,5.0,100,0.00,,,0.01,,2013-01-04 05:52:00,
2013-01-03 22:02:00,37.0,37.0,30.13,WNW,303,3.0,4.0,100,0.00,,,0.01,,2013-01-04 06:02:00,
2013-01-03 22:11:00,37.0,37.0,30.13,WNW,303,3.0,4.0,100,0.00,,,0.01,,2013-01-04 06:11:00,
2013-01-03 22:22:00,36.0,36.0,30.14,WNW,303,3.0,5.0,100,0.00,,,0.01,,2013-01-04 06:22:00,
2013-01-03 22:32:00,36.0,36.0,30.14,NW,304,4.0,5.0,100,0.00,,,0.01,,2013-01-04 06:32:00,
2013-01-03 22:42:00,36.0,36.0,30.14,NW,304,4.0,5.0,100,0.00,,,0.01,,2013-01-04 06:42:00,
2013-01-03 22:52:00,36.0,36.0,30.14,WNW,303,4.0,6.0,100,0.00,,,0.01,,2013-01-04 06:52:00,
2013-01-03 23:01:00,37.0,37.0,30.15,WNW,303,4.0,6.0,100,0.00,,,0.01,,2013-01-04 07:01:00,
2013-01-03 23:11:00,37.0,37.0,30.15,WNW,303,4.0,6.0,100,0.00,,,0.01,,2013-01-04 07:11:00,
2013-01-03 23:22:00,37.0,37.0,30.16,WNW,303,4.0,6.0,100,0.00,,,0.01,,2013-01-04 07:22:00,
2013-01-03 23:32:00,37.0,37.0,30.16,WNW,303,4.0,5.0,100,0.00,,,0.01,,2013-01-04 07:32:00,
2013-01-03 23:42:00,37.0,37.0,30.16,WNW,303,4.0,5.0,100,0.00,,,0.01,,2013-01-04 07:42:00,
2013-01-03 23:52:00,37.0,37.0,30.16,WNW,303,5.0,7.0,100,0.00,,,0.01,,2013-01-04 07:52:00,